Starlink 5719

operational
NORAD ID: 55609 Int'l Des: 2023-020 Owner: SPXS Country: US Constellation: starlink
LEOCIRCULAR

About Starlink 5719

Description loading...

Live Position

Loading 3D Globe...

Upcoming Passes

Altitude History

Altitude vs Time

uPlot chart will show altitude changes over time

Two-Line Element Set

1 55609U 23020AS 26015.75302885 .00000656 00000-0 63668-4 0 9994
2 55609 43.0052 279.5336 0001310 264.0968 95.9725 15.02529510161102
Epoch: Jan 15, 2026 • Age: 16 hours

Current Status

Altitude 571.5 km
Velocity 7.58 km/s
Sub-Earth Point -43.13°S, 76.78°W
Launch Date Feb 12, 2023
Age 2.9 years
Type internet

Technical Details

Classification Payload
Mass 305.00 kg
Dry Mass 290.00 kg
Total Mass 305.00 kg
Length 0.20 m
Diameter 2.80 m
Span 9.00 m
Shape Box + pan
Manufacturer SPXS
Bus Type Starlink
Phase Status In Orbit
Owner/State SPXS/US

Large Constellations

Loading constellations...